Location: Grust
(42.8833°N, 0.0333°W)
Time: 19:51:30
(UTC+00:00)

ATLAS 2AS CENTAUR R/B - Pass Details

Date: 25 October 2020
Orbit: 939 x 1273 km, 63.7° (Epoch: 23 November)

Event Time Altitude Azimuth Distance (km) Brightness Sun altitude
Rises 19:22:19 0° 324° (NW) 4,167 6.4 -26.4°
Reaches altitude 10° 19:25:33 10° 334° (NNW) 3,158 5.5 -26.9°
Enters shadow 19:31:56 33° 32° (NNE) 1,841 3.7 -28.1°
